Vertical_Velocity
-0 -1 -1 -0 -0 0 -0 -1 -1 1 -0 -2 -1 -1 -1 -1 -1 -2 -1 -0 -0 -1 -1 -1 -2 -0 -1 -0 -0 -3 -4 -7 1 -2 20 -6 1 1 -3 -1 -4 -3 0 -2 1
-0 -1 -0 -1 -1 -0 -0 -0 -0 -0 -0 -1 -1 -1 -1 -1 -0 -1 0 -2 -2 -1 -1 -1 -1 -1 -3 -5 1 2 4 4 1 5 6 2 2 2 -1 1 1 -1 -4 3 -5
-1 -0 -0 -0 -1 -1 -1 -0 -0 -0 -0 -1 -1 -1 -0 -0 -1 1 -2 0 -1 -1 -1 -1 -1 -2 -2 -5 1 2 2 1 6 -0 -1 2 0 0 3 -1 25 0 -2 -2 -5
-0 0 0 -0 -1 -1 -0 -1 -1 -1 -1 -1 -1 -1 -1 -0 -0 -0 -2 -1 -1 -2 -0 -0 -2 -2 -2 4 1 0 0 1 1 0 4 -4 -1 -7 -4 3 4 -4 -1 -4 2
0 0 -1 0 0 -1 -0 -0 -1 -1 0 -1 -1 -1 -1 -0 -2 -1 -1 -1 -0 -1 -0 -1 -1 -2 -3 -3 1 1 -1 -2 -1 -1 2 1 6 1 1 -2 -2 -2 0 -3 -2
0 0 0 -0 -0 -1 -1 -1 -1 -1 -0 -0 -1 -1 -1 -1 -1 -1 -1 -1 -0 -1 -1 -1 -1 -1 -2 -1 1 1 -2 -7 -2 -7 1 -3 -3 1 2 0 -1 -1 -2 1 -2
0 -1 -0 -0 0 -0 -1 -1 -1 -1 -0 -0 -1 -1 -1 -1 -1 -1 -1 -1 -1 -1 -1 -1 -1 -1 -2 -2 3 0 -5 3 -18 15 -10 1 -8 3 4 2 3 -1 -4 3 -1
-0 -1 -1 -1 0 0 -0 -0 -0 -1 -1 -1 -0 -0 -1 1 -1 -1 -1 -1 -1 -1 -2 -2 -2 -1 -1 -1 2 0 -7 -1 21 -1 -6 -0 18 -2 -1 1 1 -1 -3 -5 3
-1 -0 -1 -1 -1 0 -0 -0 -1 -1 -1 -1 -2 0 1 -2 -0 -1 -1 -0 -1 -1 -2 -2 -2 -1 -1 -2 1 -4 -6 9 -7 -8 -1 0 -10 4 -4 -0 0 -2 -1 -1 -1
-0 -0 -1 -2 -1 -0 -1 -1 -1 -1 -0 -1 -1 -2 2 -1 -0 -2 -2 -1 -1 -1 0 -1 -2 -1 -1 -1 -6 33 20 12 -2 -7 1 2 3 -7 7 1 -3 0 0 0 1
-1 -2 -1 -1 -2 -1 -1 -1 -2 -1 -1 -1 2 -4 7 -2 0 -0 -0 -0 -1 0 0 -1 -1 0 -1 -1 -1 -3 -2 -3 -1 -1 5 0 -2 -2 -13 2 1 -3 -0 -1 1
-1 -1 -1 -1 -0 -1 -1 -2 -1 -1 -1 -2 -1 -3 0 2 0 -0 0 0 -1 0 -1 0 2 -0 -1 -1 -1 2 2 3 -1 -0 0 -1 1 1 1 -4 2 1 -1 -0 -0
-1 -1 -1 -1 -1 -0 -0 -1 -1 -1 -1 1 -4 -1 -2 1 -1 1 -1 -1 2 -0 1 -1 -1 -1 0 0 1 0 -0 1 0 0 1 -1 1 -6 3 -3 2 0 -0 -1 -1
-1 -1 -2 -1 -1 -1 -1 -2 -2 -3 -2 -5 -4 1 -1 -1 1 -2 -0 0 -0 0 -1 -0 0 -0 0 1 1 2 -0 -2 -1 1 1 1 -3 -6 1 -2 -3 1 1 1 -2
1 -0 -1 -0 -1 -0 -0 -0 -1 -1 3 -7 5 0 1 1 -1 -1 -1 1 1 -1 -1 4 -0 0 0 1 -1 2 -0 -1 -2 -0 -3 1 -3 -4 9 -4 -5 -3 -2 -2 -1
-0 -0 -1 -0 -1 1 0 1 0 -0 2 -5 3 1 1 0 0 -0 1 -0 -1 -1 -1 1 -0 0 1 -1 -1 1 -0 0 0 -2 -4 -1 -4 -10 24 11 -1 -1 -4 -2 -2
-1 -1 -1 -0 -1 -0 0 1 -0 3 -6 -11 -2 1 0 1 -1 2 -0 0 1 -1 0 -2 2 0 1 -1 -0 -1 1 0 -2 -5 -7 -3 -0 8 -10 1 -2 -5 -3 -3 -1
-1 0 0 -0 0 -0 0 -0 1 1 22 -3 3 -1 2 -0 2 -1 -2 -0 0 0 -2 -2 -1 -2 -1 3 0 -2 -0 -0 -2 12 44 -3 10 -2 -8 -5 2 -1 -3 1 -0
1 0 -0 1 -0 -0 -0 -0 4 6 -6 -4 -1 3 -5 -2 5 -1 -0 -1 -1 2 0 -3 8 -2 -6 -1 1 3 -3 4 -2 -6 -2 6 18 15 13 8 -6 -3 -1 2 0
-1 -1 -1 -0 0 -0 0 3 -1 1 0 1 3 3 1 2 -8 1 -0 -0 -0 -2 1 5 -1 6 -4 1 -1 -1 1 3 -1 -4 -8 -6 2 18 11 -5 -5 -4 -4 -3 -1
-1 -1 -5 -1 -0 1 2 2 -1 -5 4 -0 1 2 1 -0 23 0 -1 4 4 1 -0 3 1 -1 10 -5 2 -0 2 -1 -0 -3 9 3 31 -7 2 -2 -1 0 -1 -5 -1
-1 -3 -8 -0 -1 -1 2 1 -4 5 1 2 1 2 4 -3 -8 2 15 -5 2 1 1 0 2 -2 -6 11 -4 -2 2 6 -3 -5 -8 -10 1 -9 37 0 -6 -2 -1 -0 -12
-0 -5 4 -1 -1 -2 0 1 -2 1 1 0 0 1 2 -0 -3 1 -3 16 1 4 -5 3 -2 -0 -3 1 -0 -2 -2 -3 -5 6 15 -3 -1 -20 6 2 -3 -0 8 -6 -8
-1 -4 0 -1 -0 -0 -2 -1 -1 0 3 -0 -1 2 4 2 2 4 2 9 1 4 1 3 6 -2 -1 4 42 -1 17 6 3 -0 -1 1 7 36 24 -11 11 10 -4 0 -9
0 -2 -2 -8 -4 4 -1 1 0 4 -6 4 -3 5 1 -1 0 1 5 6 6 -7 3 -2 -4 3 -4 -10 -4 3 3 10 0 -1 -1 3 11 -6 36 -27 4 12 -14 -6 -2
-4 0 1 -1 -1 -2 1 3 -0 2 -0 1 -4 4 -1 -3 2 -3 -12 -10 2 8 -10 5 -2 -3 -4 -2 1 -5 1 10 7 -3 -3 -9 -17 -6 2 4 3 -4 0 -1 -1
1 0 -0 2 -0 0 -0 -2 1 0 6 2 -2 -2 5 -13 1 4 4 4 5 7 6 -9 -1 1 -2 -1 -0 -8 2 -5 -2 -2 2 -7 -0 2 -6 6 9 -5 -9 -7 -3
Height
5896 5897 5897 5897 5897 5898 5899 5901 5902 5903 5905 5906 5906 5907 5907 5908 5908 5908 5908 5909 5908 5907 5907 5907 5907 5908 5908 5907 5906 5905 5907 5905 5905 5904 5894 5900 5903 5904 5901 5900 5897 5896 5896 5896 5897
5896 5897 5897 5898 5898 5898 5899 5901 5902 5903 5904 5905 5906 5907 5907 5908 5908 5908 5909 5908 5908 5908 5908 5908 5907 5908 5908 5907 5909 5909 5908 5907 5906 5905 5903 5902 5903 5903 5901 5899 5898 5896 5894 5897 5895
5896 5897 5898 5898 5898 5899 5900 5901 5902 5904 5905 5905 5906 5907 5907 5908 5909 5909 5908 5909 5909 5909 5908 5908 5908 5907 5908 5908 5910 5910 5909 5908 5908 5906 5904 5904 5903 5901 5899 5897 5890 5896 5894 5895 5894
5896 5897 5898 5898 5899 5900 5901 5902 5903 5904 5904 5905 5906 5907 5908 5909 5911 5909 5910 5910 5910 5909 5909 5909 5908 5907 5907 5911 5910 5910 5909 5909 5909 5907 5905 5905 5904 5903 5900 5898 5896 5895 5894 5894 5895
5897 5898 5898 5899 5899 5900 5901 5902 5903 5904 5905 5906 5908 5908 5909 5910 5911 5911 5911 5911 5910 5910 5910 5909 5909 5908 5907 5908 5909 5909 5909 5909 5908 5906 5908 5907 5907 5905 5902 5901 5898 5897 5895 5894 5894
5897 5898 5899 5899 5900 5901 5902 5903 5904 5905 5906 5907 5909 5909 5910 5912 5912 5912 5912 5912 5911 5911 5910 5909 5909 5909 5908 5908 5909 5909 5908 5908 5907 5907 5906 5906 5905 5904 5904 5901 5900 5897 5895 5895 5894
5898 5898 5899 5900 5901 5902 5903 5904 5905 5906 5907 5907 5909 5910 5911 5912 5912 5912 5912 5912 5912 5911 5911 5910 5909 5909 5909 5908 5909 5909 5908 5906 5899 5906 5904 5907 5906 5905 5904 5902 5901 5898 5895 5895 5895
5898 5898 5899 5900 5901 5902 5903 5904 5904 5905 5906 5907 5908 5909 5910 5911 5911 5912 5912 5912 5912 5911 5910 5909 5909 5909 5909 5909 5909 5910 5909 5906 5906 5908 5905 5905 5904 5904 5902 5902 5902 5899 5896 5894 5895
5897 5897 5898 5899 5900 5901 5901 5902 5903 5904 5904 5905 5906 5907 5908 5909 5910 5910 5910 5911 5911 5910 5909 5908 5908 5908 5909 5909 5909 5910 5911 5907 5905 5906 5906 5905 5901 5901 5900 5901 5901 5899 5898 5895 5893
5895 5896 5897 5897 5898 5899 5899 5900 5901 5901 5902 5902 5903 5905 5906 5906 5907 5907 5907 5908 5908 5908 5908 5907 5906 5907 5908 5908 5909 5918 5918 5916 5912 5905 5906 5906 5904 5899 5902 5902 5900 5900 5898 5897 5896
5893 5893 5894 5894 5895 5896 5897 5897 5899 5900 5899 5899 5901 5900 5901 5902 5902 5903 5903 5904 5905 5905 5905 5905 5905 5906 5906 5907 5907 5909 5911 5910 5909 5907 5906 5904 5903 5902 5898 5901 5900 5898 5898 5897 5897
5890 5890 5890 5891 5892 5892 5893 5893 5894 5895 5895 5895 5896 5895 5896 5897 5897 5898 5899 5900 5901 5901 5901 5902 5904 5903 5904 5905 5906 5907 5908 5908 5907 5907 5905 5904 5903 5901 5900 5897 5899 5898 5897 5896 5897
5886 5886 5886 5886 5887 5888 5888 5889 5888 5888 5889 5891 5891 5891 5891 5892 5892 5894 5895 5895 5897 5897 5898 5898 5900 5900 5902 5903 5904 5905 5905 5905 5906 5906 5903 5903 5904 5901 5901 5898 5898 5897 5896 5895 5896
5881 5881 5881 5882 5883 5883 5883 5883 5883 5883 5883 5884 5886 5887 5887 5887 5888 5889 5890 5892 5893 5894 5894 5896 5897 5897 5899 5901 5901 5902 5903 5902 5902 5902 5902 5901 5902 5903 5903 5898 5895 5896 5895 5895 5894
5877 5877 5877 5877 5878 5878 5879 5879 5879 5879 5879 5879 5883 5883 5883 5885 5885 5886 5887 5888 5890 5891 5893 5894 5894 5895 5896 5898 5898 5900 5899 5899 5900 5900 5899 5900 5899 5902 5904 5900 5895 5893 5893 5892 5893
5872 5873 5873 5873 5873 5874 5875 5875 5876 5878 5876 5876 5879 5880 5881 5881 5882 5883 5885 5886 5888 5889 5890 5891 5891 5893 5894 5894 5895 5897 5897 5897 5898 5898 5898 5898 5898 5902 5905 5902 5899 5898 5893 5891 5890
5869 5868 5868 5868 5869 5869 5870 5872 5874 5875 5874 5874 5875 5877 5878 5879 5880 5881 5883 5884 5886 5887 5888 5888 5889 5890 5891 5891 5892 5893 5894 5895 5896 5897 5898 5899 5900 5903 5899 5899 5896 5896 5896 5892 5890
5865 5864 5864 5864 5864 5865 5867 5869 5871 5873 5880 5872 5872 5872 5875 5876 5878 5878 5880 5881 5882 5883 5884 5885 5887 5885 5885 5887 5888 5888 5890 5892 5895 5901 5903 5900 5902 5901 5898 5898 5897 5893 5893 5894 5892
5862 5861 5860 5860 5860 5861 5863 5866 5868 5870 5869 5867 5869 5871 5871 5871 5874 5874 5875 5877 5878 5879 5881 5882 5888 5884 5881 5882 5884 5885 5886 5889 5890 5893 5896 5899 5901 5897 5896 5891 5890 5891 5891 5891 5890
5858 5858 5857 5856 5856 5857 5859 5861 5860 5861 5862 5864 5866 5869 5870 5871 5868 5869 5870 5872 5873 5873 5875 5878 5879 5882 5878 5878 5879 5881 5883 5886 5888 5890 5890 5893 5896 5897 5893 5888 5885 5887 5887 5887 5886
5854 5853 5851 5852 5852 5853 5854 5855 5855 5854 5857 5858 5859 5861 5864 5868 5871 5869 5868 5870 5870 5870 5870 5872 5873 5877 5879 5874 5876 5876 5878 5880 5882 5886 5889 5892 5895 5887 5887 5884 5884 5884 5884 5884 5882
5849 5848 5847 5848 5849 5848 5849 5849 5848 5849 5850 5852 5853 5855 5856 5856 5859 5864 5868 5866 5867 5865 5866 5865 5867 5868 5871 5876 5872 5874 5876 5879 5879 5881 5881 5883 5887 5888 5884 5879 5878 5880 5880 5878 5875
5845 5844 5844 5843 5843 5843 5843 5843 5842 5843 5843 5844 5846 5847 5848 5849 5851 5852 5855 5859 5858 5857 5856 5861 5859 5861 5864 5869 5872 5871 5872 5873 5875 5878 5880 5881 5886 5881 5881 5877 5876 5875 5873 5870 5870
5840 5839 5839 5838 5837 5836 5836 5836 5835 5835 5835 5835 5837 5838 5840 5841 5843 5845 5846 5848 5846 5849 5846 5851 5852 5854 5858 5864 5869 5864 5866 5867 5868 5870 5873 5876 5880 5881 5879 5868 5871 5871 5867 5866 5865
5835 5833 5831 5830 5830 5830 5828 5828 5827 5827 5825 5827 5827 5829 5829 5830 5832 5833 5836 5839 5836 5835 5837 5840 5841 5845 5846 5850 5852 5854 5858 5860 5860 5861 5864 5867 5866 5867 5864 5860 5863 5865 5856 5858 5857
5827 5826 5826 5822 5820 5820 5818 5818 5817 5818 5817 5817 5815 5818 5818 5819 5819 5819 5822 5821 5826 5827 5825 5828 5830 5833 5834 5837 5841 5842 5845 5849 5851 5852 5853 5854 5855 5857 5857 5857 5856 5856 5855 5853 5851
5819 5816 5815 5814 5811 5809 5808 5806 5807 5806 5808 5806 5805 5806 5809 5805 5805 5812 5814 5813 5816 5817 5817 5817 5817 5820 5822 5825 5828 5827 5834 5836 5838 5839 5842 5842 5846 5848 5848 5851 5851 5846 5844 5841 5845